Dewpoint
61 59 59 59 59 59 59 58 55 51 52 55 56 54 53 53 53 52 51 51 52 55 57 57 56 56 56 56 57 56 55 54 54 54 52 51 50 49
60 59 59 58 57 57 57 56 56 55 52 55 55 54 53 51 51 49 50 50 52 53 53 54 54 54 54 56 55 54 53 52 51 50 50 49 49 50
58 58 56 56 55 53 53 53 52 53 52 53 53 52 51 50 50 50 50 50 52 52 52 51 51 52 52 52 52 52 51 51 50 50 50 50 50 48
55 54 52 51 51 49 49 49 49 49 49 47 47 47 48 49 48 48 48 47 47 47 49 49 49 49 49 51 51 51 50 50 49 48 48 48 47 46
53 52 50 48 47 47 46 45 46 45 45 45 44 45 46 46 46 46 45 45 42 43 47 47 47 47 47 48 50 50 50 49 48 47 46 46 45 43
50 49 46 45 44 45 44 43 43 43 43 43 44 43 43 44 44 43 43 42 41 38 42 43 45 45 46 47 45 44 43 44 43 42 40 39 41 41
45 44 44 43 43 44 43 43 42 42 42 42 41 40 41 41 41 42 40 39 38 37 38 39 42 44 45 45 43 42 41 42 41 39 38 37 38 39
43 42 41 41 42 43 42 41 41 41 41 41 39 39 38 40 41 39 38 37 37 36 35 36 37 39 39 39 42 41 41 39 39 38 36 36 36 37
42 42 41 40 41 41 40 39 38 38 38 38 39 38 38 39 39 37 37 36 36 35 34 34 34 36 36 33 36 38 38 37 35 34 35 35 35 36
42 41 40 39 40 39 38 38 38 37 38 38 37 37 37 37 37 38 36 35 33 32 31 33 30 30 30 31 34 36 36 38 37 35 34 35 36 36
40 40 40 39 39 39 38 38 37 36 36 35 34 35 35 34 34 36 35 34 34 32 30 31 29 29 29 29 29 31 33 31 33 34 34 34 36 37
38 38 38 38 39 40 38 37 36 35 33 32 32 32 30 28 28 30 32 33 33 33 30 30 27 28 26 28 28 28 31 33 33 33 33 34 36 36
37 37 37 39 38 38 39 38 36 31 30 31 29 28 28 26 27 27 28 31 32 31 28 29 28 27 28 28 27 29 32 34 34 34 33 34 36 36
37 37 37 38 38 38 38 38 37 33 30 28 26 24 24 26 29 29 29 29 30 30 31 31 28 31 30 29 28 29 31 32 32 32 32 33 33 34
38 37 37 36 36 36 36 37 38 36 32 28 27 26 27 30 29 29 30 30 29 29 29 28 29 31 31 29 30 28 29 30 30 31 32 32 33 35
39 39 37 36 36 35 35 37 36 32 30 29 29 29 29 29 28 30 29 30 28 29 29 28 28 29 28 29 29 28 29 28 31 31 32 31 32 32
40 39 38 36 35 34 34 34 32 29 28 28 27 28 28 28 28 30 29 28 27 27 27 28 28 29 29 29 27 27 28 29 29 29 30 29 29 30
38 36 35 35 34 33 33 32 32 31 29 28 29 29 29 28 28 29 28 27 26 26 26 27 26 26 27 27 27 27 28 28 29 29 28 27 27 29
36 35 35 35 34 33 32 32 31 31 31 30 29 30 30 30 29 28 28 27 26 26 26 27 26 25 23 22 26 28 26 27 28 27 27 27 25 27
37 36 36 35 34 34 33 32 32 32 31 31 30 31 31 30 29 28 28 27 26 26 26 27 26 26 24 24 24 26 28 27 26 25 26 27 27 27
36 36 36 36 35 35 34 33 33 32 32 31 31 31 31 30 29 28 28 27 27 26 25 26 27 28 28 26 23 21 24 28 28 26 27 26 24 23
36 36 36 35 35 35 34 33 32 32 32 31 31 31 31 30 29 29 29 27 26 26 26 27 28 27 27 24 22 22 23 25 27 27 27 26 24 19
35 34 34 34 34 34 33 32 32 32 32 31 31 31 31 30 30 30 30 29 27 26 26 27 28 27 26 25 23 23 24 24 24 24 26 27 27 27
Wind_Speed
7 7 6 3 3 3 1 1 1 3 2 1 1 1 3 3 4 5 5 7 5 8 6 4 2 3 3 1 10 12 12 12 13 12 11 11 11 12
11 9 7 5 2 1 2 4 3 5 5 2 2 4 3 1 2 4 6 4 5 5 4 4 2 2 5 6 9 10 9 10 11 10 9 8 8 12
10 13 9 6 5 4 3 3 3 3 5 2 1 1 4 5 4 2 5 5 4 4 4 2 0 1 2 4 5 7 8 8 8 9 9 10 9 11
14 10 9 5 6 3 1 1 1 2 4 8 8 4 4 6 7 8 5 2 4 4 5 3 3 2 1 2 3 5 6 7 10 9 7 5 7 9
13 10 8 8 7 4 3 2 0 1 3 3 5 4 5 8 5 5 5 5 3 4 5 3 3 4 1 2 4 5 6 8 8 8 8 9 10 8
11 10 9 9 7 6 3 1 1 4 4 4 4 7 7 4 4 7 8 3 5 2 2 2 3 4 5 7 7 8 7 10 10 9 8 5 4 7
11 10 8 8 8 5 2 3 3 2 3 5 6 6 8 7 7 5 7 8 6 5 3 2 2 2 3 6 6 6 6 8 9 8 8 6 4 8
14 10 9 9 8 7 5 5 6 2 3 4 5 5 7 7 4 6 7 6 5 2 2 5 2 4 3 1 5 6 6 7 7 8 8 9 8 8
13 12 10 7 8 8 5 4 4 2 0 2 5 5 4 3 4 7 5 5 5 4 1 6 3 7 5 4 3 5 8 7 8 8 9 9 9 10
11 11 10 9 7 6 6 4 3 6 5 3 3 4 5 6 7 4 4 4 4 4 1 4 1 3 3 5 6 8 8 10 10 9 10 11 12 12
8 7 7 8 9 8 7 6 5 5 3 1 1 1 1 3 4 2 3 3 3 2 3 2 1 2 3 5 7 10 10 11 12 12 12 12 14 14
7 7 6 5 12 11 6 5 3 1 3 3 5 6 4 0 3 3 3 4 4 4 1 4 2 2 2 2 3 5 8 11 13 12 12 13 14 9
9 8 7 9 9 9 7 4 4 4 3 5 7 3 3 2 1 1 2 1 3 4 2 3 3 3 2 1 1 4 4 6 9 9 11 12 12 12
6 7 6 12 9 8 8 6 7 5 4 7 5 3 2 3 0 2 3 2 2 5 5 6 4 5 3 3 4 3 3 2 3 6 7 10 17 18
5 7 9 10 9 7 7 5 7 6 7 7 6 4 4 3 0 1 1 1 3 2 2 2 4 4 5 5 2 4 4 8 8 8 9 7 6 5
8 8 8 7 7 5 4 6 7 8 9 9 6 3 6 3 2 2 2 4 5 5 3 4 5 5 5 9 6 6 8 4 8 8 6 6 6 7
9 7 6 6 7 8 7 8 8 7 9 10 6 6 3 3 5 4 4 5 6 4 5 5 5 5 7 6 7 11 9 8 8 8 7 9 9 10
8 8 9 10 12 11 10 10 9 10 12 9 7 7 6 6 6 6 6 8 7 8 8 5 5 5 4 10 18 10 10 10 8 10 8 9 11 12
9 10 11 12 11 11 11 11 10 11 8 9 10 9 8 8 8 8 10 9 9 10 9 7 7 9 9 8 1 17 11 7 8 9 9 11 6 7
10 11 12 10 11 12 11 11 10 8 9 10 11 10 10 10 8 10 11 11 11 10 9 10 11 12 10 5 3 1 14 9 10 10 9 10 9 10
11 11 10 11 12 12 11 11 11 11 11 10 11 11 11 11 11 12 11 14 13 11 12 13 13 14 6 1 6 5 7 18 12 9 5 8 6 5
10 11 10 11 12 12 12 11 10 10 11 11 11 11 10 11 11 11 12 13 12 13 13 11 6 9 9 11 12 9 4 5 13 18 14 10 5 4
10 11 11 10 10 10 10 10 11 10 10 10 10 10 9 10 10 11 11 11 12 12 12 11 11 11 13 13 13 10 9 8 7 9 14 22 24 25
Wind_Direction
158 146 149 184 273 290 27 308 256 290 291 100 249 197 238 277 291 303 297 299 307 319 12 124 108 59 52 31 114 107 103 98 100 103 114 130 147 159
150 158 144 122 107 271 222 234 223 251 257 1 20 29 28 336 2 317 297 339 286 298 342 359 30 60 74 101 125 116 118 120 120 126 132 138 153 136
135 151 145 155 173 216 226 227 232 215 278 286 229 33 327 314 285 257 318 328 341 282 275 293 293 51 101 110 88 123 134 138 147 152 151 150 165 144
154 163 153 147 191 192 200 214 337 301 299 290 309 335 356 345 342 322 330 344 287 345 298 278 279 270 249 205 166 155 142 125 120 123 133 141 145 147
150 154 167 183 183 182 161 120 121 307 313 316 300 322 327 333 320 303 287 302 288 305 315 285 272 261 246 249 191 174 167 157 157 160 169 170 166 169
141 156 169 180 169 160 151 149 350 294 285 268 308 323 315 331 317 306 309 283 294 289 292 327 275 239 228 178 134 129 127 129 129 125 109 92 146 177
141 138 135 111 93 90 135 188 226 278 343 324 297 301 307 321 321 337 307 312 298 249 242 259 255 205 175 152 152 153 160 152 153 157 151 168 181 182
152 143 135 135 134 122 101 68 52 310 242 274 284 292 301 331 348 326 310 321 320 38 291 262 272 225 205 147 178 183 191 182 183 183 179 183 189 202
153 153 147 151 149 147 141 129 117 105 318 310 283 294 315 6 305 298 289 282 269 332 243 279 220 233 231 222 224 232 204 205 205 208 201 199 198 199
156 161 156 158 165 161 166 170 193 204 210 237 315 349 351 346 318 258 274 297 293 276 194 274 357 251 239 238 241 243 237 225 219 222 220 212 205 199
140 146 157 161 164 171 172 191 209 200 171 207 19 26 341 4 354 278 305 325 303 270 205 253 259 248 253 247 230 228 233 234 230 225 222 218 208 198
154 164 190 188 163 181 194 188 216 226 196 249 248 222 235 356 19 1 353 293 286 301 139 223 236 210 291 251 229 208 236 246 227 219 220 216 212 193
172 182 180 189 179 182 199 201 185 140 226 246 250 228 227 237 347 19 58 260 256 256 27 210 242 221 253 298 259 223 247 238 196 203 213 218 221 207
184 176 175 180 190 196 205 223 187 194 211 240 239 247 245 294 79 7 25 354 300 256 309 237 268 218 221 232 239 186 231 224 175 191 208 230 229 220
172 154 161 176 184 199 214 211 204 220 219 238 236 223 184 116 21 311 257 300 289 294 293 252 241 252 227 238 241 204 175 219 212 210 204 203 198 175
194 176 182 178 183 190 183 213 218 208 221 241 241 225 140 125 270 217 289 267 278 251 218 254 244 235 249 242 240 231 212 219 194 208 208 200 228 204
171 164 176 190 213 215 214 215 216 215 227 241 248 243 217 209 240 198 244 258 254 285 251 217 234 246 259 268 241 236 223 209 182 198 190 216 222 222
159 181 197 206 216 218 221 227 220 228 226 225 234 242 239 229 237 215 232 246 260 265 256 229 219 260 251 248 221 233 218 215 185 185 198 219 234 219
195 195 206 206 213 216 222 223 229 228 210 222 232 230 227 229 240 234 233 238 252 252 253 231 231 230 259 259 239 218 236 208 193 198 198 209 226 222
202 206 210 213 220 225 226 229 230 222 218 221 223 226 222 226 225 234 237 237 243 250 247 229 232 233 226 254 273 217 213 231 205 220 221 226 241 259
217 227 225 224 232 233 229 227 220 219 216 211 217 219 218 216 227 234 240 243 239 236 241 238 233 227 221 87 269 259 223 217 226 212 220 217 228 238
215 225 231 229 229 227 225 222 216 215 215 213 217 219 218 217 227 231 231 238 237 235 239 241 200 187 198 220 245 252 248 205 228 232 235 221 193 234
217 223 231 225 221 222 217 215 213 212 212 216 219 223 220 224 228 234 236 236 242 242 237 237 211 203 223 225 239 250 245 236 212 230 237 237 245 257